Wind_Speed
19 20 21 21 21 21 21 22 24 27 32 36 39 41 41 39 39 40 44 48 45 45 43 40 40 40 40 37 37 46 50 54 49 52 51 47 42 33 38 53 49 51 40 32 50
27 27 30 32 33 34 35 35 35 33 34 36 36 37 40 46 47 43 42 45 51 53 51 47 45 43 46 42 41 42 46 50 43 42 45 42 41 39 34 46 55 57 53 41 56
32 34 36 38 40 41 44 45 46 46 47 46 47 45 45 44 43 49 46 49 51 52 57 56 53 52 48 46 46 45 40 35 40 44 41 43 38 32 36 51 52 58 56 53 61
34 38 41 42 45 49 52 53 55 56 58 60 58 57 55 52 50 49 54 54 55 54 54 54 58 57 54 50 46 49 43 41 38 40 44 44 40 36 43 56 50 50 49 49 59
39 43 47 52 56 58 61 63 63 64 64 67 68 68 68 65 55 59 59 58 59 57 57 58 58 58 60 54 51 52 47 47 43 42 40 45 49 47 50 50 48 50 49 48 53
44 49 53 57 60 64 67 68 70 70 72 73 67 68 67 66 65 66 66 65 62 65 61 60 62 61 61 57 58 52 52 50 48 45 44 42 43 52 50 50 52 50 49 52 53
51 55 58 65 66 70 72 73 74 70 66 69 69 69 68 62 69 69 71 66 68 66 70 66 63 65 64 63 58 56 56 56 53 48 47 49 47 44 43 51 53 55 52 50 55
56 60 66 69 71 75 73 72 69 67 66 70 73 75 76 77 78 83 82 76 72 72 69 71 69 68 68 67 63 62 58 59 55 53 51 51 44 43 43 46 51 54 53 50 49
64 66 71 74 74 72 69 68 70 72 77 83 88 90 87 86 86 91 91 90 88 84 81 74 74 71 68 68 67 66 65 63 56 55 53 54 43 47 48 44 42 46 49 49 45
67 69 72 74 69 67 72 77 80 86 89 84 81 68 53 49 49 58 71 77 74 81 84 83 78 77 74 72 74 69 68 64 63 56 56 54 50 49 46 46 43 41 38 38 41
68 72 70 68 65 74 80 84 92 83 64 52 38 33 23 18 17 23 33 41 35 49 66 71 77 84 79 73 64 62 64 62 59 48 51 54 52 50 49 47 45 43 38 33 34
68 68 65 64 73 80 88 94 79 53 25 17 13 11 7 12 16 19 20 23 29 25 38 49 62 70 73 65 66 66 66 62 53 50 50 51 50 52 47 47 47 45 35 35 34
68 64 63 70 76 86 89 72 49 22 11 12 20 18 17 22 22 13 11 27 21 33 30 31 39 54 59 61 63 68 68 65 60 30 39 38 35 41 48 49 49 46 38 35 34
66 62 66 73 81 84 75 53 21 16 6 16 28 23 24 28 13 19 22 17 13 18 16 20 26 34 52 55 58 66 64 62 58 39 34 36 43 38 57 45 42 46 38 38 36
64 64 70 78 83 73 65 25 16 18 16 13 17 22 25 25 19 16 16 6 7 7 23 25 17 22 47 36 54 56 59 63 63 50 39 37 43 45 45 51 44 39 37 39 38
64 66 72 80 70 67 54 25 16 19 20 14 16 23 18 24 15 12 14 6 5 6 4 17 23 18 33 33 33 51 51 39 40 51 51 39 39 46 47 47 39 43 38 38 37
65 68 73 66 68 56 35 18 19 19 14 12 14 27 28 15 10 9 8 7 16 16 14 8 11 30 25 36 37 49 50 48 41 52 59 56 39 49 48 38 42 35 41 40 39
65 68 71 73 54 49 21 30 26 21 21 24 26 34 36 17 16 9 7 7 4 15 9 10 10 15 27 38 31 46 47 55 50 46 59 61 64 58 37 26 32 35 35 41 40
65 68 71 50 48 35 25 27 26 27 25 24 28 35 33 31 22 9 5 7 6 11 14 12 9 8 25 30 43 29 49 45 44 37 47 60 56 42 28 29 31 31 38 38 42
62 65 68 38 38 24 22 23 25 27 25 28 34 34 32 30 16 14 14 7 2 10 11 14 20 8 19 27 32 47 36 47 48 37 38 40 52 46 41 35 42 41 42 44 41
63 66 61 34 31 25 21 22 22 26 31 34 35 33 29 27 26 18 14 10 11 12 17 17 17 13 21 23 17 48 46 48 47 38 39 38 44 44 34 43 51 49 44 39 46
60 61 57 37 27 21 24 26 29 31 34 33 34 33 27 24 21 24 17 14 7 9 6 14 18 16 15 17 20 38 46 49 53 38 39 33 31 39 35 51 52 50 49 44 39
59 60 57 44 20 20 27 28 32 30 28 29 31 31 28 28 21 20 9 6 7 11 2 13 20 16 17 15 20 39 37 39 53 37 43 42 37 44 41 43 37 44 51 47 41
58 57 53 47 24 22 25 32 32 28 28 25 27 27 23 18 20 20 20 16 8 3 5 0 8 15 19 25 12 36 37 46 54 35 46 36 32 49 52 38 40 38 42 45 44
56 56 55 51 24 18 22 32 34 32 26 24 23 22 20 17 19 17 20 20 10 6 4 5 10 13 11 13 16 27 36 53 52 29 33 46 19 40 51 49 44 36 34 46 46
54 52 51 45 38 20 23 27 34 32 27 19 20 19 21 17 18 20 20 21 14 14 17 5 6 5 4 17 14 12 28 56 44 32 26 20 32 35 39 47 44 42 36 45 45
54 52 50 44 38 19 21 27 32 39 34 21 14 15 14 11 14 18 20 22 10 10 5 6 13 11 11 13 14 31 35 37 45 23 18 36 38 29 38 36 32 38 43 41 40
Wind_Direction
333 332 329 324 320 316 306 301 298 298 297 292 289 286 285 280 273 267 261 259 266 264 259 259 255 253 250 246 246 243 239 239 239 240 240 238 232 230 237 231 234 230 214 236 240
331 331 331 328 328 323 319 315 311 304 298 297 294 291 286 283 280 275 266 262 257 260 259 257 257 252 250 245 243 246 244 239 242 241 241 240 234 220 233 228 222 235 230 227 242
331 331 331 328 325 321 318 315 312 308 303 299 295 290 285 280 279 276 273 266 258 254 257 255 255 254 251 248 245 244 246 246 239 238 235 232 233 224 236 240 232 236 241 234 249
336 331 328 326 326 322 320 315 312 308 305 301 296 293 287 283 277 270 261 260 259 256 254 253 253 253 252 250 249 247 244 240 240 237 230 232 224 212 234 244 243 242 237 237 247
331 329 329 328 325 320 316 312 309 303 299 295 292 290 287 284 281 268 263 257 258 254 249 251 251 253 250 248 246 245 244 240 235 236 238 235 230 233 226 241 244 242 240 234 239
331 329 325 323 320 319 315 311 307 303 298 294 290 287 284 282 276 269 264 257 253 256 252 245 247 250 250 246 244 243 242 241 237 231 235 237 232 231 233 243 249 247 245 242 236
332 327 324 323 320 319 316 312 307 300 294 291 285 282 281 281 275 273 268 260 255 249 250 252 244 243 244 246 243 241 239 239 236 234 230 235 233 238 234 234 242 249 247 246 248
332 328 325 323 323 320 316 311 304 300 297 291 286 281 281 275 273 271 266 261 257 254 248 245 245 241 240 240 240 239 239 238 236 236 233 232 235 238 236 233 236 245 250 251 252
332 328 326 325 323 319 315 311 305 301 295 292 287 283 284 279 273 268 265 263 257 253 252 246 245 243 239 238 237 238 239 241 241 240 239 236 231 232 234 233 235 241 243 247 252
332 330 326 324 321 319 317 313 307 303 299 298 292 292 288 281 273 267 264 256 258 254 249 246 241 243 239 235 233 237 241 239 240 237 238 237 232 229 231 236 236 242 241 245 247
334 333 328 324 322 321 320 314 309 308 312 302 313 324 322 307 293 277 267 259 251 249 247 243 240 236 239 239 236 238 238 241 240 242 241 242 240 234 229 233 237 237 237 243 247
335 332 330 326 324 322 320 318 323 327 329 333 356 360 322 316 334 320 307 280 222 243 241 231 235 235 234 237 233 229 232 231 236 239 239 244 244 240 231 232 235 237 234 238 242
337 335 333 328 327 326 326 330 333 345 23 26 2 328 332 312 290 314 322 336 279 238 235 224 235 226 223 225 223 224 227 226 229 226 241 232 241 241 238 230 236 239 235 232 239
338 335 333 333 331 331 333 339 355 11 78 45 12 336 342 330 306 287 305 329 321 224 193 245 231 224 216 220 218 221 221 223 223 193 215 229 225 227 240 232 232 236 235 237 236
337 336 335 333 336 333 345 3 4 2 19 352 337 334 338 335 337 314 327 10 10 160 196 233 226 233 204 221 216 217 217 222 221 204 200 217 224 224 242 237 232 234 232 233 235
339 337 337 339 338 348 351 351 1 359 341 346 341 337 339 330 333 351 319 259 293 253 186 212 204 207 201 200 207 216 204 202 223 204 201 201 227 232 226 234 233 233 230 230 229
341 339 341 343 346 351 350 5 15 12 34 9 349 350 5 10 360 330 321 263 256 255 262 194 177 214 214 192 198 203 208 193 200 208 203 200 209 228 231 240 238 231 228 227 226
342 342 347 345 357 358 12 43 34 25 17 1 356 10 10 358 338 308 267 342 233 264 245 216 180 196 203 195 195 200 197 202 197 203 212 215 225 227 227 201 229 235 225 224 222
342 345 345 356 4 0 41 30 27 18 9 5 355 7 6 4 352 348 344 22 224 217 244 254 221 215 186 194 210 209 189 203 206 211 220 216 220 211 174 196 195 228 222 218 219
344 346 347 1 9 20 35 19 13 4 359 355 353 354 357 3 8 353 310 149 72 246 228 242 257 255 204 207 196 197 193 194 188 198 208 207 216 208 191 193 204 217 222 216 214
344 347 356 356 7 20 13 4 355 347 347 345 346 353 359 9 2 5 340 330 223 242 251 241 249 259 182 186 181 183 187 195 183 191 184 202 214 220 209 204 206 219 226 230 217
344 349 355 357 4 0 360 353 346 339 345 345 343 350 358 356 4 357 347 312 268 238 258 276 248 246 263 175 176 196 194 186 188 187 176 183 204 192 200 213 218 219 223 226 222
345 348 356 357 350 358 356 334 342 354 0 343 339 347 351 355 6 347 350 314 307 267 34 252 243 241 181 174 179 181 213 184 179 182 174 173 195 194 200 203 229 221 225 222 220
345 348 354 357 344 356 351 354 359 358 354 359 342 350 358 6 2 3 360 20 30 34 357 52 205 201 188 192 172 195 190 180 177 189 168 189 200 192 204 209 222 222 217 216 217
344 348 352 357 343 334 344 360 360 355 356 2 351 3 12 19 356 17 13 16 32 22 338 248 219 201 237 200 167 197 197 181 179 179 191 186 198 198 203 207 222 227 214 202 205
343 347 349 353 349 331 342 353 353 359 356 11 359 2 13 8 13 15 20 10 13 68 44 89 131 156 192 148 159 163 162 173 171 198 187 181 210 184 201 205 213 223 210 200 201
341 343 344 351 347 335 341 346 344 356 353 354 359 358 13 16 16 19 46 28 52 64 33 105 105 102 131 157 153 156 175 166 177 208 168 187 199 198 183 185 197 201 194 195 196
Height
5825 5821 5818 5816 5813 5810 5807 5803 5800 5798 5794 5790 5787 5785 5783 5781 5780 5780 5783 5780 5781 5778 5779 5780 5782 5783 5783 5786 5787 5788 5788 5792 5803 5809 5816 5821 5825 5833 5838 5841 5842 5846 5850 5847 5846
5820 5816 5812 5808 5804 5801 5796 5793 5790 5787 5784 5781 5778 5776 5772 5770 5770 5769 5771 5769 5769 5766 5767 5770 5771 5772 5772 5777 5777 5778 5780 5789 5799 5802 5806 5812 5816 5823 5827 5827 5830 5834 5840 5842 5834
5815 5811 5806 5801 5797 5792 5788 5783 5778 5774 5770 5766 5764 5762 5760 5758 5757 5759 5757 5754 5754 5754 5753 5757 5758 5759 5762 5766 5768 5770 5775 5782 5787 5790 5795 5801 5804 5813 5816 5812 5820 5826 5833 5835 5828
5810 5805 5800 5795 5790 5785 5779 5773 5767 5760 5754 5749 5746 5743 5742 5742 5744 5743 5740 5737 5738 5740 5742 5743 5744 5745 5749 5754 5759 5759 5768 5772 5776 5779 5784 5791 5794 5799 5803 5801 5810 5816 5823 5829 5821
5803 5798 5791 5785 5779 5773 5766 5759 5753 5747 5740 5734 5727 5722 5720 5721 5732 5716 5717 5721 5721 5723 5727 5729 5730 5731 5734 5741 5745 5749 5758 5760 5766 5769 5774 5778 5783 5787 5790 5793 5798 5803 5811 5819 5815
5795 5789 5783 5776 5769 5762 5753 5745 5736 5728 5721 5714 5705 5700 5697 5702 5697 5694 5696 5698 5704 5703 5707 5712 5716 5718 5719 5724 5730 5740 5742 5747 5754 5761 5764 5769 5774 5771 5787 5789 5790 5795 5800 5807 5812
5788 5780 5772 5765 5756 5747 5737 5728 5718 5710 5699 5691 5680 5674 5674 5682 5667 5668 5663 5672 5675 5683 5687 5692 5697 5699 5706 5710 5717 5722 5725 5733 5741 5750 5755 5757 5763 5768 5779 5779 5782 5784 5791 5797 5800
5777 5769 5759 5749 5739 5729 5718 5707 5697 5688 5678 5665 5657 5649 5648 5646 5645 5637 5634 5643 5649 5655 5665 5670 5674 5680 5686 5694 5697 5704 5711 5717 5734 5738 5745 5747 5759 5764 5766 5769 5775 5778 5783 5789 5794
5767 5757 5746 5734 5722 5711 5700 5688 5675 5665 5651 5636 5623 5615 5616 5607 5609 5597 5603 5610 5616 5627 5632 5645 5652 5661 5669 5675 5680 5689 5700 5709 5722 5726 5732 5738 5754 5753 5755 5761 5767 5770 5776 5782 5788
5756 5744 5732 5719 5705 5693 5681 5667 5653 5636 5619 5598 5583 5579 5578 5577 5572 5568 5571 5578 5582 5592 5601 5618 5630 5635 5644 5653 5663 5684 5690 5698 5703 5715 5718 5728 5738 5741 5747 5752 5759 5763 5770 5775 5781
5743 5730 5717 5702 5689 5675 5663 5645 5628 5612 5587 5566 5568 5561 5562 5558 5557 5555 5554 5556 5564 5566 5574 5592 5595 5606 5633 5647 5666 5675 5677 5685 5697 5700 5708 5718 5723 5731 5738 5744 5751 5756 5763 5770 5774
5730 5717 5704 5688 5675 5657 5636 5614 5591 5576 5575 5564 5564 5562 5559 5556 5554 5553 5550 5550 5554 5554 5561 5569 5572 5604 5621 5627 5640 5650 5658 5669 5684 5691 5698 5706 5713 5722 5729 5737 5742 5748 5758 5763 5768
5719 5706 5694 5677 5662 5640 5615 5591 5579 5573 5568 5567 5565 5563 5558 5558 5554 5551 5549 5546 5542 5545 5552 5559 5568 5589 5594 5606 5618 5630 5642 5661 5672 5686 5690 5699 5703 5707 5719 5727 5734 5742 5750 5757 5762
5708 5696 5683 5667 5649 5626 5602 5583 5575 5572 5570 5569 5561 5560 5558 5549 5551 5546 5547 5546 5539 5537 5548 5552 5563 5573 5582 5590 5605 5616 5637 5653 5662 5673 5681 5689 5695 5701 5706 5719 5727 5735 5744 5750 5755
5698 5685 5670 5652 5637 5618 5596 5584 5578 5573 5573 5570 5568 5563 5559 5555 5550 5545 5544 5544 5540 5538 5545 5552 5556 5560 5568 5583 5596 5609 5628 5637 5647 5660 5673 5680 5685 5694 5696 5706 5722 5730 5737 5742 5748
5691 5678 5662 5643 5622 5602 5590 5585 5581 5577 5573 5574 5569 5566 5562 5554 5549 5546 5544 5543 5542 5541 5544 5549 5553 5559 5563 5577 5587 5605 5616 5628 5636 5647 5653 5666 5675 5683 5691 5708 5714 5720 5729 5735 5741
5684 5671 5655 5638 5624 5604 5592 5586 5582 5578 5577 5577 5573 5567 5559 5552 5549 5546 5544 5543 5542 5541 5542 5547 5548 5553 5558 5570 5577 5587 5602 5613 5623 5629 5640 5657 5668 5678 5692 5699 5704 5714 5720 5729 5735
5681 5665 5650 5634 5617 5606 5596 5590 5589 5585 5582 5579 5574 5568 5560 5554 5550 5547 5542 5542 5541 5541 5543 5545 5549 5554 5559 5565 5573 5577 5591 5601 5609 5620 5634 5651 5658 5674 5688 5690 5695 5704 5713 5720 5728
5677 5662 5649 5632 5620 5611 5600 5598 5594 5590 5586 5581 5576 5569 5562 5556 5550 5547 5544 5543 5542 5542 5544 5545 5548 5549 5554 5562 5569 5576 5579 5602 5615 5625 5633 5645 5660 5672 5677 5685 5691 5697 5704 5713 5721
5674 5661 5647 5634 5625 5617 5610 5605 5599 5594 5589 5583 5576 5570 5563 5557 5554 5550 5548 5544 5542 5543 5543 5545 5544 5546 5550 5554 5559 5569 5588 5593 5604 5616 5626 5638 5647 5655 5670 5679 5687 5689 5697 5706 5714
5669 5657 5641 5631 5627 5619 5613 5609 5602 5596 5590 5583 5576 5572 5565 5559 5553 5549 5547 5546 5545 5545 5544 5544 5544 5545 5548 5551 5556 5563 5570 5588 5603 5608 5618 5634 5643 5655 5667 5671 5675 5684 5691 5700 5706
5670 5659 5647 5633 5627 5620 5614 5609 5603 5597 5590 5582 5575 5570 5565 5560 5556 5551 5547 5544 5544 5543 5542 5541 5541 5545 5546 5550 5555 5565 5568 5576 5591 5604 5613 5630 5645 5645 5654 5660 5671 5682 5687 5693 5701
5666 5655 5641 5632 5627 5621 5616 5609 5602 5596 5589 5581 5573 5570 5564 5558 5556 5551 5548 5547 5546 5544 5543 5541 5542 5545 5545 5550 5550 5552 5564 5576 5590 5603 5612 5623 5630 5640 5643 5652 5667 5678 5683 5689 5696
5662 5655 5642 5629 5623 5619 5615 5609 5601 5596 5590 5582 5574 5570 5566 5562 5556 5555 5549 5547 5545 5544 5540 5539 5541 5542 5544 5546 5552 5557 5562 5573 5583 5592 5604 5613 5622 5631 5639 5652 5655 5666 5675 5684 5692
5658 5647 5636 5629 5622 5617 5614 5607 5601 5595 5589 5582 5576 5571 5567 5563 5559 5555 5552 5548 5547 5544 5540 5539 5539 5541 5542 5543 5549 5558 5562 5572 5580 5593 5601 5609 5618 5626 5637 5646 5653 5661 5668 5677 5684
5657 5649 5637 5627 5620 5615 5611 5607 5601 5596 5588 5584 5577 5572 5568 5565 5562 5558 5555 5551 5547 5546 5542 5542 5543 5542 5544 5547 5552 5556 5564 5574 5583 5590 5599 5609 5615 5622 5632 5641 5649 5655 5663 5670 5678
5654 5645 5635 5626 5617 5612 5608 5603 5599 5592 5588 5581 5577 5574 5570 5569 5565 5561 5558 5556 5553 5552 5548 5546 5548 5549 5551 5554 5560 5565 5570 5579 5586 5585 5586 5602 5609 5616 5625 5635 5643 5650 5657 5666 5675